TimeCET,TemperatureF,Dew PointF,Humidity,Sea Level PressureIn,VisibilityMPH,Wind Direction,Wind SpeedMPH,Gust SpeedMPH,PrecipitationIn,Events,Conditions,WindDirDegrees,DateUTC
12:00 AM,39.2,32.0,75,30.30,-9999.0,WNW,5.8,-,N/A,,Clear,290,2013-01-05 23:00:00
1:00 AM,37.4,33.8,87,30.30,-9999.0,WNW,5.8,-,N/A,,Clear,290,2013-01-06 00:00:00
2:00 AM,37.4,33.8,87,30.30,-9999.0,WNW,5.8,-,N/A,,Clear,290,2013-01-06 01:00:00
3:00 AM,37.4,33.8,87,30.30,-9999.0,West,6.9,-,N/A,,Clear,270,2013-01-06 02:00:00
4:00 AM,37.4,33.8,87,30.27,-9999.0,West,6.9,-,N/A,,Clear,270,2013-01-06 03:00:00
5:00 AM,37.4,33.8,87,30.27,-9999.0,West,9.2,-,N/A,,Clear,280,2013-01-06 04:00:00
6:00 AM,37.4,35.6,93,30.24,-9999.0,West,6.9,-,N/A,,Clear,260,2013-01-06 05:00:00
7:00 AM,39.2,35.6,87,30.24,6.2,West,8.1,-,N/A,Rain,Light Rain,270,2013-01-06 06:00:00
8:00 AM,39.2,37.4,93,30.21,4.3,West,8.1,-,N/A,Rain,Light Rain,270,2013-01-06 07:00:00
8:31 AM,39.2,37.4,93,30.21,1.9,West,9.2,-,N/A,Rain,Light Rain,280,2013-01-06 07:31:00
9:00 AM,39.2,39.2,100,30.21,1.9,West,8.1,-,N/A,Rain,Light Rain,280,2013-01-06 08:00:00
9:33 AM,39.2,39.2,100,30.18,2.5,West,6.9,-,N/A,Rain,Light Rain,270,2013-01-06 08:33:00
10:00 AM,39.2,39.2,100,30.18,2.5,West,6.9,-,N/A,Rain,Light Rain,270,2013-01-06 09:00:00
10:02 AM,39.2,39.2,100,30.18,1.2,West,5.8,-,N/A,Rain,Light Rain,270,2013-01-06 09:02:00
10:39 AM,41.0,39.2,93,30.18,2.2,West,9.2,-,N/A,Rain,Light Rain,270,2013-01-06 09:39:00
11:00 AM,41.0,41.0,100,30.15,3.1,West,10.4,-,N/A,Rain,Light Rain,280,2013-01-06 10:00:00
12:00 PM,41.0,39.2,93,30.12,6.2,West,12.7,-,N/A,,Overcast,280,2013-01-06 11:00:00
1:00 PM,41.0,39.2,93,30.09,6.2,WNW,10.4,-,N/A,,Overcast,290,2013-01-06 12:00:00
1:38 PM,41.0,41.0,100,30.09,2.5,WNW,10.4,-,N/A,Rain,Light Rain,290,2013-01-06 12:38:00
2:00 PM,42.8,41.0,93,30.09,6.2,WNW,11.5,21.9,N/A,Rain,Light Rain,290,2013-01-06 13:00:00
3:00 PM,42.8,39.2,87,30.06,4.3,WNW,10.4,-,N/A,Rain,Light Rain,290,2013-01-06 14:00:00
4:00 PM,42.8,39.2,87,30.06,4.3,WNW,13.8,24.2,N/A,Rain,Light Rain,290,2013-01-06 15:00:00
5:00 PM,41.0,39.2,93,30.06,4.3,West,10.4,-,N/A,Rain,Light Rain,280,2013-01-06 16:00:00
6:00 PM,41.0,39.2,93,30.06,6.2,West,12.7,-,N/A,Rain,Light Rain,280,2013-01-06 17:00:00
7:00 PM,41.0,39.2,93,30.06,6.2,West,11.5,-,N/A,,Overcast,280,2013-01-06 18:00:00
8:00 PM,42.8,39.2,87,30.09,6.2,WNW,13.8,-,N/A,,Overcast,290,2013-01-06 19:00:00
8:26 PM,41.0,39.2,93,30.09,6.2,WNW,11.5,-,N/A,,Overcast,290,2013-01-06 19:26:00
9:00 PM,41.0,37.4,87,30.09,6.2,WNW,13.8,-,N/A,,Overcast,290,2013-01-06 20:00:00
10:00 PM,41.0,37.4,87,30.12,6.2,WNW,9.2,-,N/A,,Overcast,300,2013-01-06 21:00:00
11:00 PM,41.0,37.4,87,30.12,-9999.0,NW,8.1,-,N/A,,Clear,310,2013-01-06 22:00:00